Wind_Speed
30 31 31 31 32 32 33 33 34 33 32 30 31 31 31 31 31 31 31 32 32 33 33 34 35 36 37 37 37 38 38 37 38 39 40 41 42 42 42 43 42 42 41 40
30 30 31 31 31 32 32 32 33 33 31 31 32 32 32 32 32 33 32 32 32 33 33 34 34 35 36 36 36 37 37 37 38 39 39 40 41 41 42 42 41 40 40 40
31 31 32 31 30 31 32 31 32 32 31 31 32 32 32 32 32 32 32 32 33 32 33 34 34 34 35 35 36 36 36 37 38 38 39 39 40 40 40 40 40 39 39 39
31 32 33 29 29 30 31 30 32 32 32 32 32 32 32 33 32 32 31 32 32 32 32 32 33 34 34 34 35 35 36 36 37 37 37 38 38 38 39 38 38 38 38 39
32 33 33 30 30 30 30 30 31 32 32 33 33 33 33 33 33 32 32 31 32 32 32 32 32 32 33 33 34 34 35 36 36 36 36 37 37 37 37 37 37 37 38 38
31 32 31 29 29 30 31 31 30 31 32 32 33 33 32 32 33 32 32 32 32 32 32 32 32 32 32 33 33 34 34 35 35 36 36 36 36 36 36 36 36 36 36 37
31 32 30 28 28 30 31 30 30 31 32 32 32 32 32 32 32 32 33 33 32 32 32 32 32 32 32 33 33 33 33 33 34 34 35 36 36 35 35 36 35 35 35 36
30 31 30 29 29 30 30 30 31 32 32 32 32 32 32 32 32 32 33 33 33 33 33 33 33 33 33 33 33 33 33 33 33 34 35 35 34 34 34 34 34 34 35 35
30 30 30 30 30 29 30 31 31 32 33 33 33 33 32 33 33 33 34 34 35 34 34 33 33 33 33 33 33 33 33 33 33 34 34 33 33 33 34 34 34 34 34 34
31 30 30 30 30 29 30 31 32 33 33 33 33 33 33 34 34 35 35 35 35 35 34 34 33 33 33 33 33 33 33 33 33 33 32 32 32 32 32 32 33 33 34 34
32 31 31 31 31 31 31 32 33 33 34 34 34 34 34 34 34 34 34 34 34 34 34 34 34 33 33 33 33 33 33 32 32 32 32 32 32 32 32 32 32 32 33 33
32 31 31 30 31 32 32 32 33 34 34 34 34 34 33 33 33 33 33 34 34 34 34 34 34 33 33 33 33 33 32 32 32 31 32 32 32 32 31 32 32 32 33 33
32 31 31 30 30 31 31 31 32 33 33 34 34 35 34 34 34 34 33 33 33 34 34 34 34 34 33 33 32 32 32 31 31 31 31 31 31 30 30 31 31 32 32 32
31 32 32 31 31 31 31 31 32 32 33 34 34 34 34 34 34 34 33 33 33 33 33 33 34 33 33 33 33 33 32 31 31 31 31 31 30 30 30 31 30 31 31 32
32 32 32 32 32 32 31 31 32 32 33 34 34 34 33 33 32 32 32 32 31 31 31 32 32 32 33 33 33 32 31 31 32 32 31 31 30 30 30 30 31 31 31 31
33 32 32 32 32 32 32 32 33 33 33 33 33 33 32 32 32 32 31 31 30 30 30 30 31 31 31 31 31 31 31 31 31 31 31 31 30 30 30 31 31 31 31 30
32 31 32 32 32 32 32 33 33 34 33 32 32 32 31 31 31 30 30 30 29 29 29 30 30 30 30 30 30 30 31 30 30 30 30 30 29 29 30 30 29 29 29 29
29 30 30 31 31 32 32 32 33 33 32 32 32 31 31 31 31 31 30 30 30 30 30 30 30 30 30 30 30 30 29 29 28 28 27 27 27 28 28 28 28 27 27 27
29 30 30 30 31 31 31 32 32 32 32 32 31 31 31 31 31 31 31 31 30 30 29 29 29 29 28 28 28 27 26 26 26 26 26 26 27 27 27 26 26 25 25 26
29 29 30 30 30 30 30 30 30 31 31 30 30 29 29 30 30 30 30 29 27 27 27 26 26 26 26 26 26 25 25 25 25 25 25 25 25 26 26 25 25 25 25 25
27 28 29 29 29 29 29 29 29 29 29 29 28 28 29 29 29 28 27 26 26 26 25 24 23 23 24 24 24 24 24 24 23 23 24 24 24 24 24 23 23 23 24 24
26 27 27 27 27 28 28 28 28 28 28 28 27 27 27 26 26 26 25 25 25 24 24 23 23 23 23 22 22 23 23 22 22 23 23 23 23 23 22 21 22 22 22 23
27 27 27 26 26 27 27 28 27 27 27 27 26 26 25 24 24 24 23 23 23 23 22 22 22 22 22 22 22 22 22 22 22 22 22 22 22 21 21 21 21 21 22 22
27 26 26 26 26 26 26 27 27 26 26 25 25 25 24 23 23 22 23 23 22 22 22 22 22 22 22 21 21 22 22 22 21 21 21 21 21 20 20 21 21 21 21 21
25 24 24 24 24 24 25 25 24 24 24 24 24 23 23 23 22 22 22 22 22 22 21 21 21 21 21 20 20 20 20 21 21 21 20 20 20 19 20 20 20 20 20 19
24 24 24 24 24 24 24 24 23 23 23 23 23 23 22 22 22 22 22 22 22 22 22 21 21 21 20 20 19 19 19 19 19 19 19 19 19 19 19 19 18 18 18 17
24 24 24 23 23 23 23 23 23 23 22 22 22 22 21 21 21 22 22 22 22 21 21 21 21 20 20 19 19 19 18 18 18 18 17 18 17 17 17 16 16 16 16 15
Wind_Direction
269 268 267 265 263 264 266 269 271 272 272 274 274 273 272 272 272 272 272 273 273 273 273 271 270 270 270 272 274 275 275 275 275 276 277 279 280 281 281 281 281 280 278 276
269 269 268 267 265 265 267 269 270 271 272 275 274 274 274 273 272 273 273 274 275 275 274 273 272 271 271 273 275 276 276 275 277 278 279 281 281 281 281 282 281 280 278 277
270 269 269 269 268 267 267 269 271 272 273 274 275 275 275 275 274 275 275 275 275 276 276 275 274 273 273 274 275 276 276 277 279 279 280 281 282 282 282 282 282 280 279 278
270 268 268 269 269 269 269 269 272 273 273 274 274 274 274 274 275 275 275 276 276 275 276 275 275 276 276 276 276 277 277 279 280 281 282 283 284 284 283 283 282 282 280 279
271 271 270 269 271 272 271 271 271 272 272 273 273 273 274 275 275 275 276 277 278 278 277 276 276 276 277 278 279 279 279 280 281 282 283 285 286 285 284 284 284 283 281 281
273 273 274 275 273 272 272 273 273 273 273 273 274 274 275 275 275 276 276 278 278 278 278 278 278 277 277 278 280 281 281 281 281 282 283 284 285 285 285 285 286 285 283 282
275 275 275 277 277 275 274 275 275 274 273 273 275 276 276 276 276 276 276 277 277 278 278 279 279 279 279 280 281 281 282 282 282 283 284 284 284 284 285 286 286 285 284 283
276 276 277 278 277 276 275 274 274 275 275 275 275 275 276 277 276 276 276 277 277 278 277 278 279 280 280 280 280 281 281 282 283 284 284 285 285 285 285 285 285 285 285 284
277 277 277 276 275 275 274 274 275 275 276 277 277 276 276 276 274 275 277 277 278 278 277 279 280 280 280 281 281 281 281 282 284 285 285 286 286 287 287 286 285 285 286 285
276 274 274 274 274 275 275 276 276 276 277 278 278 278 277 276 275 276 276 276 277 277 278 279 279 280 280 281 281 281 282 284 285 285 285 286 287 288 288 287 286 286 287 286
274 275 274 274 274 275 275 276 275 276 276 277 278 279 279 278 277 277 277 276 276 277 277 278 279 281 281 281 282 282 283 283 284 283 285 287 287 288 287 287 287 287 288 289
275 275 275 275 276 276 276 276 276 275 276 276 278 280 280 279 279 278 278 277 277 277 277 278 279 280 281 281 281 282 282 283 284 284 285 286 287 287 287 287 287 288 289 290
276 276 275 276 278 278 278 277 276 275 275 276 277 278 279 280 280 280 279 278 279 278 277 277 278 280 280 280 281 280 281 282 283 283 284 286 287 286 286 287 288 288 290 291
276 276 275 276 278 278 278 278 277 276 276 277 279 279 280 280 280 280 280 280 279 279 278 277 277 278 278 279 280 280 281 281 282 282 283 285 285 286 286 287 287 288 290 291
276 276 276 278 278 277 278 278 279 279 279 281 282 281 280 281 282 281 281 280 280 279 278 278 277 277 278 278 279 280 280 281 282 282 283 284 285 286 287 287 288 289 290 290
276 276 278 278 278 278 277 278 279 280 281 283 283 282 281 281 281 280 280 281 280 279 279 279 278 278 278 278 278 278 279 280 282 282 283 283 284 285 287 288 289 290 290 291
278 278 278 278 278 277 277 279 280 281 282 282 283 282 282 280 280 280 279 279 280 279 279 279 279 278 278 278 278 278 280 281 282 282 282 282 283 285 286 288 289 291 292 294
280 280 279 278 278 277 278 279 281 281 282 282 282 282 281 280 279 279 279 279 280 280 279 279 279 279 279 279 279 280 280 281 281 281 281 281 283 285 287 289 290 290 291 293
281 280 280 279 279 278 278 279 280 281 281 282 282 281 281 280 280 280 280 280 279 280 280 279 279 280 280 280 280 280 279 279 280 280 279 280 282 285 287 288 289 291 293 295
281 280 281 281 280 279 279 280 281 281 282 282 282 282 281 281 281 280 279 279 279 280 281 281 280 280 280 280 280 280 279 280 280 280 280 281 283 285 286 287 288 291 294 296
282 282 282 282 281 280 281 281 282 282 282 282 282 282 283 283 283 281 279 278 279 279 279 279 280 280 280 280 280 281 281 281 281 281 280 282 285 287 287 288 290 292 295 297
284 285 285 284 283 282 283 283 283 283 283 283 284 283 284 284 284 282 280 279 279 279 277 276 278 281 281 281 280 282 282 281 282 282 282 284 286 287 288 290 293 295 296 299
284 285 285 285 284 284 284 284 283 283 283 284 285 285 285 285 284 283 281 280 279 278 276 276 278 280 281 282 282 281 281 281 282 282 282 284 285 287 288 291 295 297 298 299
284 285 285 284 283 284 285 286 285 284 285 285 286 286 285 284 284 284 284 281 279 278 277 277 279 281 282 283 283 281 280 279 280 281 282 284 285 286 287 290 294 297 298 299
284 283 281 282 282 284 286 287 286 286 286 286 286 286 284 282 282 283 284 283 280 278 278 279 281 282 283 284 283 282 280 279 279 279 280 282 284 285 287 290 293 295 297 299
284 284 283 284 285 285 286 287 287 287 288 286 285 285 283 281 279 280 282 283 280 278 278 280 282 283 282 281 281 280 281 281 280 280 279 281 282 284 287 290 292 294 296 298
285 285 284 283 283 284 285 286 286 286 286 286 285 284 282 280 280 280 281 281 280 278 278 279 281 282 281 280 279 279 280 280 279 279 279 280 280 282 285 289 292 294 296 299
Height
5597 5597 5597 5597 5599 5599 5598 5599 5599 5600 5600 5601 5599 5597 5596 5596 5595 5594 5594 5592 5591 5590 5589 5588 5587 5587 5587 5586 5585 5585 5584 5583 5581 5580 5579 5577 5576 5574 5572 5570 5568 5566 5564 5563
5589 5589 5588 5589 5590 5590 5590 5591 5590 5591 5592 5592 5590 5589 5588 5587 5586 5586 5585 5584 5582 5581 5580 5579 5578 5577 5577 5576 5575 5574 5574 5573 5571 5570 5569 5567 5565 5563 5561 5559 5556 5555 5553 5552
5581 5581 5579 5581 5584 5583 5583 5583 5583 5582 5585 5583 5582 5580 5579 5578 5577 5576 5576 5575 5573 5572 5571 5570 5569 5568 5567 5567 5565 5564 5563 5562 5561 5560 5558 5556 5554 5552 5550 5548 5546 5544 5543 5542
5572 5573 5571 5577 5576 5575 5575 5575 5574 5574 5574 5573 5573 5571 5570 5569 5568 5568 5567 5566 5565 5563 5562 5561 5560 5559 5558 5557 5556 5555 5554 5552 5551 5549 5548 5546 5544 5542 5539 5537 5536 5534 5532 5531
5563 5562 5563 5568 5568 5567 5566 5567 5566 5565 5565 5564 5563 5563 5562 5561 5560 5559 5558 5557 5556 5555 5553 5552 5551 5550 5549 5548 5546 5545 5544 5543 5541 5540 5538 5536 5534 5532 5529 5528 5526 5524 5522 5521
5555 5554 5555 5561 5560 5558 5558 5558 5558 5557 5556 5555 5554 5554 5554 5553 5551 5550 5549 5549 5547 5546 5545 5543 5542 5541 5540 5539 5537 5536 5535 5533 5532 5530 5528 5526 5524 5522 5520 5518 5516 5514 5513 5511
5548 5546 5548 5552 5550 5549 5550 5551 5549 5548 5547 5546 5545 5545 5545 5543 5542 5541 5540 5540 5538 5537 5536 5535 5533 5532 5531 5530 5528 5527 5525 5524 5522 5520 5518 5516 5514 5512 5511 5509 5507 5505 5503 5502
5540 5539 5543 5543 5541 5542 5541 5540 5539 5538 5537 5537 5536 5535 5535 5534 5533 5532 5531 5530 5529 5528 5527 5525 5524 5523 5522 5520 5519 5517 5516 5514 5513 5511 5509 5507 5505 5503 5501 5499 5497 5495 5493 5492
5534 5535 5535 5533 5533 5532 5531 5531 5530 5529 5529 5528 5527 5526 5526 5525 5524 5523 5522 5521 5519 5518 5517 5516 5515 5514 5513 5511 5510 5508 5507 5505 5503 5501 5499 5497 5495 5493 5491 5489 5488 5486 5484 5482
5525 5526 5526 5525 5524 5523 5523 5522 5521 5520 5520 5519 5518 5517 5516 5515 5514 5513 5512 5511 5510 5509 5508 5507 5505 5504 5503 5502 5500 5499 5497 5496 5494 5492 5490 5488 5486 5484 5482 5480 5478 5477 5475 5473
5516 5517 5517 5516 5515 5514 5514 5513 5512 5511 5510 5509 5508 5507 5506 5505 5504 5503 5502 5500 5500 5499 5498 5497 5496 5495 5493 5492 5491 5490 5488 5487 5485 5483 5481 5479 5477 5475 5473 5471 5469 5468 5466 5464
5508 5509 5507 5507 5506 5505 5503 5503 5502 5501 5500 5499 5498 5498 5496 5495 5494 5493 5492 5491 5490 5489 5488 5487 5486 5485 5484 5483 5481 5480 5479 5477 5476 5474 5472 5470 5468 5466 5464 5462 5461 5459 5456 5454
5499 5499 5498 5497 5496 5495 5494 5493 5492 5491 5491 5490 5489 5488 5487 5486 5484 5483 5482 5481 5480 5479 5478 5477 5477 5476 5475 5473 5472 5471 5470 5468 5467 5465 5463 5461 5459 5458 5456 5454 5452 5450 5448 5445
5490 5489 5488 5488 5487 5486 5484 5483 5483 5482 5481 5480 5479 5478 5477 5476 5475 5474 5472 5471 5470 5469 5469 5468 5467 5466 5465 5464 5463 5461 5460 5459 5457 5456 5454 5452 5450 5449 5447 5446 5444 5442 5439 5437
5481 5480 5479 5479 5478 5477 5475 5474 5473 5473 5472 5471 5469 5468 5467 5466 5465 5464 5463 5462 5461 5460 5459 5458 5457 5456 5455 5454 5453 5452 5450 5449 5448 5446 5445 5443 5442 5440 5438 5437 5435 5433 5431 5428
5472 5470 5470 5469 5468 5467 5466 5465 5464 5463 5462 5461 5460 5458 5457 5456 5455 5454 5453 5452 5451 5450 5449 5448 5447 5446 5445 5444 5443 5442 5441 5440 5438 5437 5436 5434 5433 5431 5430 5428 5426 5424 5422 5419
5462 5462 5461 5460 5459 5458 5457 5455 5454 5453 5452 5451 5450 5449 5447 5446 5446 5445 5444 5443 5442 5441 5440 5439 5438 5437 5436 5435 5434 5433 5431 5430 5429 5428 5427 5425 5424 5423 5421 5419 5417 5415 5413 5411
5453 5452 5451 5450 5449 5448 5447 5446 5445 5444 5442 5441 5440 5439 5438 5437 5436 5436 5435 5434 5433 5432 5431 5429 5428 5428 5427 5426 5425 5424 5423 5421 5420 5419 5418 5417 5416 5414 5413 5411 5409 5407 5405 5403
5444 5443 5442 5440 5439 5438 5437 5436 5435 5434 5433 5432 5430 5429 5428 5428 5427 5426 5425 5425 5424 5423 5421 5420 5419 5418 5417 5416 5415 5415 5414 5413 5412 5411 5410 5409 5408 5406 5405 5403 5401 5400 5398 5396
5436 5434 5433 5431 5430 5429 5428 5427 5426 5425 5424 5422 5421 5420 5419 5418 5417 5416 5416 5415 5414 5413 5412 5411 5411 5410 5409 5408 5407 5406 5406 5405 5404 5403 5402 5401 5400 5399 5397 5396 5394 5393 5391 5388
5427 5426 5424 5423 5421 5420 5419 5418 5417 5416 5415 5413 5412 5411 5410 5409 5408 5407 5407 5406 5406 5405 5404 5403 5403 5402 5401 5400 5399 5399 5398 5397 5396 5396 5395 5394 5393 5391 5390 5388 5387 5386 5384 5381
5419 5417 5416 5414 5413 5412 5411 5410 5408 5407 5406 5405 5404 5403 5402 5401 5400 5399 5398 5398 5397 5397 5396 5396 5395 5394 5394 5393 5392 5391 5391 5390 5389 5388 5388 5387 5386 5385 5383 5382 5381 5379 5377 5375
5411 5409 5407 5406 5405 5404 5403 5401 5400 5399 5398 5397 5396 5395 5394 5393 5392 5391 5390 5390 5389 5389 5388 5388 5387 5387 5386 5386 5385 5384 5383 5383 5382 5381 5381 5380 5379 5378 5377 5376 5374 5372 5371 5369
5402 5401 5399 5398 5396 5395 5394 5393 5392 5391 5390 5389 5388 5387 5386 5385 5384 5383 5382 5382 5381 5381 5381 5380 5380 5379 5379 5378 5378 5377 5376 5376 5375 5374 5374 5373 5372 5372 5371 5369 5368 5366 5365 5363
5394 5393 5391 5390 5389 5388 5387 5385 5384 5383 5382 5381 5380 5379 5378 5377 5377 5376 5375 5374 5374 5373 5373 5373 5373 5372 5372 5371 5370 5370 5369 5369 5368 5368 5367 5367 5366 5365 5364 5363 5362 5361 5359 5357
5386 5385 5384 5383 5381 5380 5379 5378 5377 5376 5375 5374 5373 5372 5370 5370 5369 5369 5368 5367 5367 5366 5366 5366 5365 5365 5365 5364 5363 5363 5362 5362 5361 5361 5361 5360 5360 5359 5359 5357 5356 5355 5354 5352
5379 5378 5376 5375 5374 5373 5372 5371 5370 5369 5368 5366 5366 5365 5363 5363 5362 5361 5360 5360 5359 5359 5359 5359 5358 5358 5358 5357 5357 5356 5356 5356 5355 5355 5355 5354 5354 5354 5353 5352 5351 5350 5349 5348